TimeCDT,TemperatureF,Dew PointF,Humidity,Sea Level PressureIn,VisibilityMPH,Wind Direction,Wind SpeedMPH,Gust SpeedMPH,PrecipitationIn,Events,Conditions,WindDirDegrees,DateUTC
12:15 AM,66.4,43.9,44,29.86,10.0,South,12.7,-,N/A,,Clear,170,2013-05-08 05:15:00
12:35 AM,66.0,43.9,45,29.86,10.0,South,13.8,-,N/A,,Clear,170,2013-05-08 05:35:00
12:55 AM,65.5,44.1,46,29.86,10.0,South,13.8,-,N/A,,Clear,170,2013-05-08 05:55:00
1:15 AM,66.0,44.1,45,29.85,10.0,South,17.3,-,N/A,,Clear,180,2013-05-08 06:15:00
1:35 AM,66.6,44.1,44,29.86,10.0,South,17.3,24.2,N/A,,Clear,180,2013-05-08 06:35:00
1:55 AM,65.8,43.9,45,29.85,10.0,South,16.1,-,N/A,,Clear,180,2013-05-08 06:55:00
2:15 AM,64.8,43.9,47,29.85,10.0,South,15.0,-,N/A,,Clear,180,2013-05-08 07:15:00
2:35 AM,62.4,43.7,50,29.85,10.0,South,10.4,-,N/A,,Clear,180,2013-05-08 07:35:00
2:55 AM,60.4,43.7,54,29.85,10.0,South,9.2,-,N/A,,Clear,180,2013-05-08 07:55:00
3:15 AM,59.4,43.2,55,29.85,10.0,South,9.2,-,N/A,,Clear,180,2013-05-08 08:15:00
3:35 AM,57.9,42.8,57,29.84,10.0,South,8.1,-,N/A,,Clear,180,2013-05-08 08:35:00
3:55 AM,56.5,42.1,59,29.85,10.0,South,5.8,-,N/A,,Clear,180,2013-05-08 08:55:00
4:15 AM,55.6,41.7,60,29.85,10.0,South,8.1,-,N/A,,Clear,170,2013-05-08 09:15:00
4:35 AM,53.1,41.0,64,29.85,10.0,South,9.2,-,N/A,,Clear,170,2013-05-08 09:35:00
4:55 AM,53.1,40.3,62,29.86,10.0,NNW,4.6,-,N/A,,Clear,330,2013-05-08 09:55:00
5:15 AM,53.2,41.0,63,29.87,10.0,North,9.2,-,N/A,,Clear,10,2013-05-08 10:15:00
5:35 AM,55.2,42.4,62,29.87,10.0,ENE,5.8,-,N/A,,Clear,70,2013-05-08 10:35:00
5:55 AM,52.9,41.9,66,29.88,10.0,NNE,9.2,-,N/A,,Clear,30,2013-05-08 10:55:00
6:15 AM,54.1,41.9,63,29.87,10.0,East,8.1,-,N/A,,Clear,100,2013-05-08 11:15:00
6:35 AM,51.8,41.7,68,29.87,10.0,East,9.2,-,N/A,,Clear,80,2013-05-08 11:35:00
6:55 AM,52.3,41.0,65,29.87,10.0,ESE,4.6,-,N/A,,Clear,110,2013-05-08 11:55:00
7:15 AM,51.4,41.9,70,29.87,10.0,East,10.4,-,N/A,,Clear,100,2013-05-08 12:15:00
7:35 AM,54.9,42.8,64,29.89,10.0,ENE,6.9,-,N/A,,Clear,60,2013-05-08 12:35:00
7:55 AM,57.0,43.9,61,29.89,10.0,ESE,5.8,-,N/A,,Clear,120,2013-05-08 12:55:00
8:15 AM,60.1,44.8,57,29.89,10.0,ESE,10.4,-,N/A,,Clear,120,2013-05-08 13:15:00
8:35 AM,62.4,45.1,53,29.89,10.0,SE,6.9,-,N/A,,Clear,140,2013-05-08 13:35:00
8:55 AM,64.6,45.9,51,29.90,10.0,SE,8.1,-,N/A,,Clear,130,2013-05-08 13:55:00
9:15 AM,66.7,46.4,48,29.90,10.0,South,6.9,-,N/A,,Clear,190,2013-05-08 14:15:00
9:35 AM,68.0,48.4,49,29.90,10.0,South,10.4,-,N/A,,Clear,190,2013-05-08 14:35:00
9:55 AM,69.8,49.1,48,29.90,10.0,South,6.9,-,N/A,,Clear,190,2013-05-08 14:55:00
10:15 AM,71.8,49.5,45,29.89,10.0,SSW,11.5,16.1,N/A,,Clear,200,2013-05-08 15:15:00
10:35 AM,73.0,49.6,44,29.89,10.0,South,6.9,-,N/A,,Clear,170,2013-05-08 15:35:00
10:55 AM,74.1,49.6,42,29.88,10.0,South,11.5,-,N/A,,Clear,180,2013-05-08 15:55:00
11:15 AM,75.9,48.4,38,29.88,10.0,SSW,9.2,16.1,N/A,,Clear,200,2013-05-08 16:15:00
11:35 AM,77.4,45.9,33,29.87,10.0,SSW,10.4,19.6,N/A,,Clear,200,2013-05-08 16:35:00
11:55 AM,78.8,46.8,32,29.87,10.0,SSE,9.2,16.1,N/A,,Clear,160,2013-05-08 16:55:00
12:15 PM,79.5,46.4,31,29.87,10.0,SW,9.2,-,N/A,,Clear,220,2013-05-08 17:15:00
12:35 PM,81.9,44.6,27,29.86,10.0,SSW,11.5,17.3,N/A,,Clear,200,2013-05-08 17:35:00
12:55 PM,82.6,41.4,23,29.86,10.0,SSW,11.5,21.9,N/A,,Clear,200,2013-05-08 17:55:00
1:15 PM,83.7,39.2,21,29.85,10.0,South,12.7,21.9,N/A,,Clear,180,2013-05-08 18:15:00
1:35 PM,84.4,37.4,19,29.85,10.0,South,15.0,24.2,N/A,,Clear,190,2013-05-08 18:35:00
1:55 PM,84.2,35.8,18,29.85,10.0,SSW,17.3,20.7,N/A,,Clear,200,2013-05-08 18:55:00
2:15 PM,85.5,33.8,16,29.84,10.0,SSW,15.0,27.6,N/A,,Clear,210,2013-05-08 19:15:00
2:35 PM,86.7,29.8,13,29.83,10.0,SSW,17.3,29.9,N/A,,Clear,200,2013-05-08 19:35:00
2:55 PM,86.9,28.0,12,29.83,10.0,SW,15.0,25.3,N/A,,Clear,220,2013-05-08 19:55:00
3:15 PM,87.8,25.7,11,29.82,10.0,SW,18.4,27.6,N/A,,Clear,230,2013-05-08 20:15:00
3:35 PM,88.5,26.6,11,29.82,10.0,SW,24.2,32.2,N/A,,Clear,220,2013-05-08 20:35:00
3:55 PM,89.2,25.7,10,29.80,10.0,SW,18.4,24.2,N/A,,Clear,230,2013-05-08 20:55:00
4:15 PM,90.3,27.0,10,29.79,10.0,SSW,19.6,26.5,N/A,,Clear,200,2013-05-08 21:15:00
4:35 PM,89.4,27.1,11,29.78,10.0,SSW,13.8,32.2,N/A,,Clear,210,2013-05-08 21:35:00
4:55 PM,87.8,25.7,11,29.78,10.0,SW,17.3,29.9,N/A,,Clear,230,2013-05-08 21:55:00
5:15 PM,88.0,25.5,10,29.77,10.0,SW,19.6,24.2,N/A,,Clear,220,2013-05-08 22:15:00
5:35 PM,88.2,25.7,10,29.76,10.0,SW,20.7,27.6,N/A,,Clear,230,2013-05-08 22:35:00
5:55 PM,88.3,25.9,10,29.76,10.0,SW,18.4,27.6,N/A,,Clear,220,2013-05-08 22:55:00
6:15 PM,87.3,25.3,11,29.76,10.0,SSW,15.0,26.5,N/A,,Clear,200,2013-05-08 23:15:00
6:35 PM,87.8,25.3,10,29.75,10.0,SSW,21.9,25.3,N/A,,Clear,210,2013-05-08 23:35:00
6:55 PM,86.4,24.8,11,29.76,10.0,SW,17.3,26.5,N/A,,Clear,220,2013-05-08 23:55:00
7:15 PM,85.6,25.2,11,29.76,10.0,SW,17.3,-,N/A,,Clear,230,2013-05-09 00:15:00
7:35 PM,84.2,25.5,12,29.76,10.0,SW,13.8,19.6,N/A,,Clear,220,2013-05-09 00:35:00
7:55 PM,83.7,25.5,12,29.77,10.0,SSW,15.0,21.9,N/A,,Clear,200,2013-05-09 00:55:00
8:15 PM,77.0,43.2,30,29.79,10.0,South,23.0,26.5,N/A,,Clear,170,2013-05-09 01:15:00
8:35 PM,74.7,42.4,31,29.83,10.0,West,18.4,-,N/A,,Clear,260,2013-05-09 01:35:00
8:55 PM,72.3,42.8,35,29.84,7.0,North,33.4,46.0,N/A,,Mostly Cloudy,360,2013-05-09 01:55:00
9:15 PM,65.3,44.2,46,29.87,10.0,NNW,23.0,31.1,N/A,,Scattered Clouds,340,2013-05-09 02:15:00
9:35 PM,63.7,43.0,47,29.89,10.0,North,16.1,-,N/A,,Clear,350,2013-05-09 02:35:00
10:15 PM,60.8,43.7,53,29.90,10.0,North,17.3,-,N/A,,Clear,350,2013-05-09 03:15:00
10:35 PM,59.5,44.2,57,29.91,10.0,NNW,18.4,-,N/A,,Clear,340,2013-05-09 03:35:00